1510898400.67,41616,8.56,73732.3,-2.23,-3.31,-3.31,0,*57
1510898401.87,41617,8.56,73730.5,-2.23,-3.31,-3.31,0,*56
1510898403.07,41618,8.56,73734.0,-2.23,-3.27,-3.19,0,*54
1510898404.27,41619,8.56,73732.0,-2.23,-3.31,-3.27,0,*5F
1510898405.47,41620,8.56,73732.0,-2.23,-3.39,-3.31,0,*5A
1510898406.67,41621,8.56,73730.8,-2.23,-3.27,-3.15,0,*52
1510898407.89,41622,8.56,73728.5,-2.21,-3.27,-3.23,0,*56
1510898409.11,41623,8.56,73728.5,-2.21,-3.27,-3.15,0,*52
1510898410.31,41624,8.56,73728.5,-2.23,-3.31,-3.19,0,*5C
1510898411.52,41625,8.56,73730.5,-2.21,-3.23,-3.15,0,*50
1510898412.73,41626,8.56,73730.8,-2.23,-3.31,-3.27,0,*53
1510898413.94,41627,8.56,73728.8,-2.21,-3.23,-3.15,0,*52
1510898415.14,41628,8.56,73730.0,-2.23,-3.27,-3.19,0,*57
1510898416.35,41629,8.56,73730.8,-2.23,-3.31,-3.27,0,*5C
1510898417.57,41630,8.56,73728.0,-2.21,-3.27,-3.23,0,*55
1510898418.79,41631,8.56,73724.0,-2.21,-3.35,-3.35,0,*50
1510898420.02,41632,8.56,73726.8,-2.21,-3.35,-3.27,0,*50
1510898421.23,41633,8.56,73728.5,-2.23,-3.31,-3.27,0,*57
1510898422.43,41634,8.5,73724.3,-2.23,-3.39,-3.27,0,*58
1510898423.64,41635,8.56,73724.3,-2.23,-3.39,-3.27,0,*59
1510898424.84,41636,8.5,73724.3,-2.23,-3.31,-3.27,0,*52
1510898426.05,41637,8.56,73732.0,-2.23,-3.27,-3.27,0,*54
1510898427.25,41638,8.5,73728.3,-2.23,-3.31,-3.27,0,*5C
1510898428.45,41639,8.5,73730.3,-2.23,-3.31,-3.19,0,*50
1510898429.65,41640,8.56,73732.3,-2.23,-3.27,-3.19,0,*59
1510898430.86,41641,8.56,73732.3,-2.23,-3.27,-3.27,0,*55
1510898432.06,41642,8.56,73732.0,-2.23,-3.27,-3.27,0,*56
1510898433.26,41643,8.5,73732.3,-2.23,-3.27,-3.15,0,*56
1510898434.49,41644,8.5,73728.5,-2.21,-3.15,-3.03,0,*55
1510898435.68,41645,8.56,73732.5,-2.23,-3.19,-3.19,0,*51
1510898436.88,41646,8.56,73728.8,-2.23,-3.19,-3.15,0,*5E
1510898438.08,41647,8.56,73734.3,-2.23,-3.27,-3.19,0,*5E
1510898439.27,41648,8.56,73732.3,-2.23,-3.19,-3.07,0,*53
1510898440.47,41649,8.56,73734.5,-2.23,-3.19,-3.19,0,*5D
1510898441.66,41650,8.5,73732.8,-2.23,-3.19,-3.19,0,*55
1510898442.86,41651,8.56,73732.8,-2.23,-3.19,-3.15,0,*58
1510898444.05,41652,8.56,73738.8,-2.23,-3.19,-3.15,0,*5B
1510898445.25,41653,8.5,73732.5,-2.23,-3.19,-3.07,0,*59
1510898446.48,41654,8.5,73732.3,-2.21,-3.15,-3.11,0,*57
1510898447.68,41655,8.5,73728.3,-2.23,-3.27,-3.19,0,*5D
1510898448.88,41656,8.56,73730.5,-2.27,-3.31,-3.27,0,*50
1510898450.08,41657,8.56,73730.0,-2.23,-3.27,-3.23,0,*56
1510898451.28,41658,8.56,73734.0,-2.23,-3.27,-3.19,0,*50
1510898452.47,41659,8.56,73734.3,-2.23,-3.27,-3.19,0,*51
1510898453.67,41660,8.5,73728.8,-2.23,-3.19,-3.19,0,*56
1510898454.86,41661,8.5,73730.0,-2.23,-3.19,-3.19,0,*57
1510898456.06,41662,8.5,73730.3,-2.23,-3.19,-3.15,0,*58
1510898457.25,41663,8.56,73728.0,-2.23,-3.19,-3.15,0,*59
1510898458.45,41664,8.5,73726.0,-2.23,-3.27,-3.19,0,*5F
1510898459.66,41665,8.56,73730.5,-2.23,-3.27,-3.27,0,*53
1510898460.86,41666,8.5,73724.8,-2.23,-3.31,-3.19,0,*5A
1510898462.06,41667,8.56,73730.0,-2.23,-3.27,-3.27,0,*51
1510898463.27,41668,8.56,73730.3,-2.23,-3.27,-3.27,0,*5E
1510898464.47,41669,8.56,73728.8,-2.23,-3.39,-3.27,0,*50
1510898465.67,41670,8.56,73724.0,-2.23,-3.39,-3.31,0,*5F
1510898466.87,41671,8.5,73722.5,-2.27,-3.31,-3.31,0,*52
1510898468.07,41672,8.56,73722.8,-2.27,-3.39,-3.31,0,*59
1510898469.27,41673,8.5,73720.8,-2.27,-3.39,-3.31,0,*58
1510898470.47,41674,8.56,73718.5,-2.27,-3.39,-3.27,0,*58
1510898471.68,41675,8.5,73718.5,-2.27,-3.39,-3.27,0,*59
1510898472.88,41676,8.56,73722.0,-2.27,-3.39,-3.27,0,*5A
1510898474.08,41677,8.56,73724.8,-2.23,-3.39,-3.19,0,*52
1510898475.28,41678,8.56,73724.3,-2.27,-3.31,-3.27,0,*5C
1510898476.51,41679,8.5,73724.0,-2.29,-3.31,-3.31,0,*54
1510898477.7,41680,8.56,73726.0,-2.27,-3.27,-3.19,0,*51
1510898478.93,41681,8.56,73724.8,-2.21,-3.15,-3.15,0,*5B
1510898480.13,41682,8.56,73728.3,-2.27,-3.27,-3.19,0,*53
1510898481.32,41683,8.5,73724.5,-2.23,-3.27,-3.19,0,*56
1510898482.53,41684,8.56,73728.8,-2.23,-3.27,-3.27,0,*5C
1510898483.72,41685,8.56,73726.8,-2.27,-3.19,-3.19,0,*59
1510898484.92,41686,8.5,73726.8,-2.27,-3.19,-3.27,0,*57
1510898486.12,41687,8.56,73726.8,-2.23,-3.27,-3.19,0,*52
1510898487.32,41688,8.5,73724.8,-2.27,-3.31,-3.19,0,*5E
1510898488.53,41689,8.56,73726.0,-2.23,-3.27,-3.27,0,*51
1510898489.72,41690,8.5,73724.5,-2.27,-3.31,-3.19,0,*57
1510898490.93,41691,8.56,73724.8,-2.27,-3.27,-3.27,0,*5C
1510898492.12,41692,8.56,73726.0,-2.27,-3.19,-3.19,0,*5F
1510898493.32,41693,8.56,73724.0,-2.23,-3.27,-3.19,0,*57
1510898494.52,41694,8.56,73726.0,-2.27,-3.19,-3.19,0,*59
1510898495.71,41695,8.5,73720.8,-2.27,-3.31,-3.23,0,*5B
1510898496.93,41696,8.56,73724.8,-2.29,-3.23,-3.19,0,*5C
1510898498.13,41697,8.5,73722.3,-2.27,-3.27,-3.27,0,*5A
1510898499.33,41698,8.5,73724.3,-2.27,-3.27,-3.19,0,*58
1510898500.53,41699,8.5,73726.0,-2.27,-3.19,-3.19,0,*54
1510898501.73,41700,8.56,73730.8,-2.27,-3.15,-3.07,0,*56
1510898502.93,41701,8.56,73726.5,-2.27,-3.19,-3.07,0,*5B
1510898504.13,41702,8.5,73726.5,-2.27,-3.15,-3.07,0,*54
1510898505.33,41703,8.56,73726.3,-2.27,-3.15,-3.07,0,*55
1510898506.53,41704,8.56,73728.5,-2.27,-3.07,-3.07,0,*51
1510898507.72,41705,8.56,73734.5,-2.27,-3.07,-3.07,0,*50
1510898508.93,41706,8.56,73730.5,-2.27,-3.15,-3.07,0,*50
1510898510.12,41707,8.5,73726.8,-2.27,-3.07,-3.07,0,*52
1510898511.33,41708,8.5,73728.5,-2.27,-3.15,-3.07,0,*5E
1510898512.53,41709,8.5,73728.8,-2.27,-3.15,-3.07,0,*5F
1510898513.73,41710,8.56,73728.0,-2.27,-3.07,-3.07,0,*54
1510898514.92,41711,8.56,73734.3,-2.27,-3.15,-3.15,0,*55
1510898516.15,41712,8.5,73728.8,-2.29,-3.19,-3.11,0,*50
1510898517.34,41713,8.56,73734.3,-2.27,-3.15,-3.15,0,*57
1510898518.54,41714,8.5,73730.3,-2.27,-3.19,-3.07,0,*5F
1510898519.74,41715,8.56,73732.8,-2.27,-3.15,-3.19,0,*5D
1510898520.94,41716,8.5,73730.0,-2.27,-3.15,-3.07,0,*51
1510898522.14,41717,8.56,73730.5,-2.27,-3.15,-3.15,0,*53
1510898523.33,41718,8.56,73730.0,-2.27,-3.19,-3.15,0,*50
1510898524.53,41719,8.56,73728.5,-2.27,-3.19,-3.07,0,*52
1510898525.72,41720,8.56,73730.8,-2.23,-3.19,-3.19,0,*53
1510898526.92,41721,8.5,73730.8,-2.23,-3.27,-3.15,0,*53
1510898528.13,41722,8.5,73726.0,-2.23,-3.27,-3.07,0,*53
1510898529.32,41723,8.56,73730.0,-2.27,-3.19,-3.15,0,*58
1510898530.52,41724,8.5,73726.3,-2.27,-3.19,-3.15,0,*5F
1510898531.72,41725,8.5,73726.3,-2.27,-3.19,-3.07,0,*5D
1510898532.92,41726,8.56,73728.3,-2.27,-3.15,-3.07,0,*52
1510898534.11,41727,8.56,73730.0,-2.27,-3.19,-3.07,0,*5F
1510898535.31,41728,8.56,73730.3,-2.27,-3.07,-3.07,0,*5F
1510898536.52,41729,8.5,73730.5,-2.27,-3.15,-3.07,0,*5D
1510898537.71,41730,8.56,73730.0,-2.27,-3.07,-3.15,0,*55
1510898538.93,41731,8.56,73730.8,-2.29,-3.19,-3.11,0,*51
1510898540.13,41732,8.56,73730.8,-2.27,-3.15,-3.15,0,*54
1510898541.33,41733,8.56,73728.5,-2.27,-3.15,-3.07,0,*56
1510898542.53,41734,8.56,73730.5,-2.27,-3.15,-3.07,0,*51
1510898543.73,41735,8.5,73728.8,-2.27,-3.19,-3.11,0,*5B
1510898544.93,41736,8.5,73728.8,-2.27,-3.19,-3.07,0,*5F
1510898546.13,41737,8.5,73724.3,-2.27,-3.15,-3.07,0,*52
1510898547.33,41738,8.5,73726.3,-2.27,-3.15,-3.07,0,*5D
1510898548.53,41739,8.56,73728.3,-2.27,-3.15,-3.15,0,*5F
1510898549.73,41740,8.5,73730.3,-2.27,-3.15,-3.07,0,*52
1510898550.95,41741,8.5,73728.0,-2.29,-3.19,-3.19,0,*5E
1510898552.15,41742,8.56,73728.8,-2.27,-3.07,-3.07,0,*53
1510898553.36,41743,8.5,73724.3,-2.29,-3.19,-3.19,0,*5C
1510898554.56,41744,8.5,73726.5,-2.27,-3.15,-3.07,0,*56
1510898555.76,41745,8.5,73724.3,-2.27,-3.15,-3.15,0,*54
1510898556.96,41746,8.5,73728.5,-2.27,-3.19,-3.07,0,*58
1510898558.16,41747,8.5,73726.8,-2.27,-3.15,-3.07,0,*55
1510898559.36,41748,8.5,73724.8,-2.27,-3.07,-3.15,0,*5A
1510898560.56,41749,8.56,73728.0,-2.27,-3.15,-3.07,0,*5B
1510898561.76,41750,8.5,73726.5,-2.23,-3.15,-3.07,0,*57
1510898562.96,41751,8.5,73724.0,-2.23,-3.15,-3.07,0,*56
1510898564.16,41752,8.5,73728.8,-2.23,-3.15,-3.07,0,*55
1510898565.39,41753,8.5,73728.3,-2.21,-3.15,-3.03,0,*52
1510898566.58,41754,8.5,73730.5,-2.23,-3.07,-3.15,0,*53
1510898567.79,41755,8.56,73732.8,-2.23,-3.27,-3.07,0,*53
1510898568.99,41756,8.5,73734.0,-2.27,-3.27,-3.15,0,*57
1510898570.19,41757,8.56,73738.3,-2.23,-3.27,-3.19,0,*5E
1510898571.39,41758,8.56,73732.0,-2.23,-3.39,-3.27,0,*53
1510898572.61,41759,8.5,73734.0,-2.23,-3.51,-3.31,0,*5B
1510898573.84,41760,8.5,73730.0,-2.23,-3.51,-3.39,0,*59
1510898575.08,41761,8.5,73722.3,-2.23,-3.43,-3.43,0,*56
1510898576.3,41762,8.5,73722.8,-2.27,-3.43,-3.31,0,*54
1510898577.53,41763,8.5,73718.5,-2.27,-3.43,-3.31,0,*55
1510898578.73,41764,8.5,73722.8,-2.27,-3.31,-3.27,0,*50
1510898579.94,41765,8.5,73720.0,-2.27,-3.31,-3.27,0,*51
1510898581.15,41766,8.5,73720.5,-2.29,-3.35,-3.23,0,*5C
1510898582.38,41767,8.5,73722.8,-2.29,-3.31,-3.19,0,*50
1510898583.57,41768,8.5,73726.0,-2.27,-3.27,-3.15,0,*5A
1510898584.77,41769,8.56,73728.5,-2.27,-3.19,-3.19,0,*5A
1510898585.96,41770,8.56,73728.3,-2.27,-3.19,-3.19,0,*52
1510898587.17,41771,8.5,73724.0,-2.23,-3.39,-3.27,0,*58
1510898588.37,41772,8.5,73728.0,-2.27,-3.31,-3.27,0,*57
1510898589.62,41773,8.5,73730.8,-2.29,-3.43,-3.35,0,*5E
1510898590.84,41774,8.5,73728.0,-2.27,-3.43,-3.39,0,*5B
1510898592.06,41775,8.5,73724.3,-2.27,-3.43,-3.31,0,*52
1510898593.29,41776,8.5,73722.8,-2.27,-3.43,-3.39,0,*59
1510898594.53,41777,8.5,73716.3,-2.29,-3.43,-3.35,0,*5A
1510898595.78,41778,8.5,73722.5,-2.29,-3.47,-3.35,0,*51
1510898596.98,41779,8.56,73722.3,-2.27,-3.39,-3.31,0,*53
1510898598.18,41780,8.56,73722.8,-2.27,-3.31,-3.19,0,*57
1510898599.4,41781,8.56,73722.3,-2.29,-3.35,-3.23,0,*55
1510898600.6,41782,8.5,73718.3,-2.27,-3.27,-3.19,0,*52
1510898601.82,41783,8.56,73722.8,-2.29,-3.31,-3.19,0,*5A
1510898603.01,41784,8.5,73720.8,-2.27,-3.27,-3.23,0,*5D
1510898604.26,41785,8.5,73724.3,-2.29,-3.43,-3.31,0,*53
1510898605.51,41786,8.5,73716.8,-2.29,-3.43,-3.35,0,*54
1510898606.78,41787,8.5,73718.8,-2.29,-3.43,-3.43,0,*54
1510898607.97,41788,8.56,73722.0,-2.27,-3.39,-3.31,0,*5D
1510898609.17,41789,8.56,73724.8,-2.27,-3.39,-3.31,0,*5C
1510898610.42,41790,8.5,73728.5,-2.29,-3.43,-3.35,0,*53
1510898611.66,41791,8.5,73728.5,-2.29,-3.43,-3.31,0,*56
1510898612.87,41792,8.5,73728.3,-2.27,-3.27,-3.27,0,*5E
1510898614.09,41793,8.5,73724.8,-2.29,-3.31,-3.23,0,*52
1510898615.31,41794,8.56,73728.0,-2.29,-3.31,-3.23,0,*55
1510898616.53,41795,8.56,73728.3,-2.29,-3.31,-3.23,0,*54
1510898617.72,41796,8.56,73728.0,-2.27,-3.27,-3.19,0,*57
1510898618.94,41797,8.5,73724.8,-2.29,-3.35,-3.23,0,*52
1510898620.16,41798,8.5,73724.8,-2.29,-3.35,-3.23,0,*5D
1510898621.38,41799,8.5,73726.5,-2.29,-3.35,-3.23,0,*5C
1510898622.62,41800,8.5,73724.8,-2.29,-3.43,-3.31,0,*51
1510898623.87,41801,8.56,73726.3,-2.29,-3.47,-3.35,0,*50
1510898625.1,41802,8.56,73724.3,-2.29,-3.35,-3.35,0,*56
1510898626.37,41803,8.56,73726.0,-2.29,-3.43,-3.43,0,*57
1510898627.64,41804,8.5,73724.0,-2.29,-3.47,-3.55,0,*53
1510898628.9,41805,8.56,73724.5,-2.29,-3.47,-3.47,0,*51
1510898630.17,41806,8.5,73720.8,-2.29,-3.47,-3.47,0,*52
1510898631.44,41807,8.56,73726.0,-2.29,-3.47,-3.55,0,*50
1510898632.7,41808,8.5,73726.3,-2.29,-3.47,-3.55,0,*5F
1510898633.97,41809,8.56,73732.5,-2.29,-3.55,-3.47,0,*5E
1510898635.21,41810,8.5,73728.3,-2.31,-3.43,-3.47,0,*58
1510898636.46,41811,8.5,73730.0,-2.29,-3.43,-3.35,0,*55
1510898637.69,41812,8.5,73730.0,-2.29,-3.35,-3.35,0,*57
1510898638.91,41813,8.5,73726.3,-2.31,-3.35,-3.43,0,*5E
1510898640.14,41814,8.5,73730.8,-2.31,-3.35,-3.43,0,*59
1510898641.34,41815,8.5,73732.0,-2.31,-3.35,-3.35,0,*59
1510898642.59,41816,8.56,73732.3,-2.29,-3.43,-3.35,0,*52
1510898643.82,41817,8.5,73732.3,-2.31,-3.35,-3.43,0,*5A
1510898645.04,41818,8.5,73732.3,-2.29,-3.35,-3.35,0,*5D
1510898646.26,41819,8.56,73736.8,-2.29,-3.23,-3.35,0,*5B
1510898647.49,41820,8.56,73732.3,-2.29,-3.31,-3.35,0,*52
1510898648.71,41821,8.5,73734.3,-2.29,-3.31,-3.35,0,*53
1510898649.94,41822,8.5,73732.8,-2.29,-3.31,-3.35,0,*50
1510898651.16,41823,8.5,73730.8,-2.29,-3.31,-3.35,0,*51
1510898652.39,41824,8.56,73734.0,-2.29,-3.31,-3.31,0,*52
1510898653.59,41825,8.5,73732.0,-2.27,-3.31,-3.27,0,*5A
1510898654.81,41826,8.56,73732.3,-2.29,-3.31,-3.31,0,*50
1510898656.02,41827,8.56,73734.5,-2.27,-3.27,-3.27,0,*5F
1510898657.24,41828,8.56,73732.5,-2.29,-3.35,-3.31,0,*5A
1510898658.47,41829,8.5,73728.8,-2.29,-3.31,-3.35,0,*5B
1510898659.68,41830,8.5,73730.3,-2.29,-3.23,-3.31,0,*54
1510898660.9,41831,8.5,73728.3,-2.29,-3.31,-3.23,0,*55
1510898662.12,41832,8.5,73728.8,-2.29,-3.31,-3.31,0,*55
1510898663.35,41833,8.56,73732.3,-2.29,-3.31,-3.31,0,*54
1510898664.55,41834,8.5,73730.3,-2.27,-3.27,-3.27,0,*5D
1510898665.76,41835,8.56,73732.3,-2.29,-3.23,-3.23,0,*52
1510898666.96,41836,8.5,73730.0,-2.27,-3.27,-3.19,0,*52
1510898668.18,41837,8.5,73726.8,-2.29,-3.31,-3.23,0,*53
1510898669.4,41838,8.5,73726.5,-2.29,-3.23,-3.31,0,*5C
1510898670.6,41839,8.56,73732.0,-2.27,-3.27,-3.31,0,*57
1510898671.84,41840,8.5,73728.8,-2.29,-3.35,-3.43,0,*51
1510898673.11,41841,8.5,73726.3,-2.29,-3.43,-3.43,0,*51
1510898674.31,41842,8.5,73730.3,-2.27,-3.31,-3.31,0,*5C
1510898675.56,41843,8.56,73732.3,-2.29,-3.35,-3.43,0,*52
1510898676.76,41844,8.5,73730.3,-2.27,-3.31,-3.31,0,*5A
1510898677.96,41845,8.5,73728.3,-2.27,-3.27,-3.31,0,*5C
1510898679.18,41846,8.5,73726.8,-2.29,-3.35,-3.35,0,*56
1510898680.41,41847,8.5,73730.8,-2.29,-3.31,-3.35,0,*53
1510898681.61,41848,8.5,73730.0,-2.27,-3.27,-3.27,0,*56
1510898682.84,41849,8.56,73734.0,-2.29,-3.35,-3.35,0,*59
1510898684.06,41850,8.5,73730.0,-2.29,-3.35,-3.35,0,*51
1510898685.29,41851,8.5,73728.3,-2.29,-3.31,-3.35,0,*54
1510898686.51,41852,8.5,73726.0,-2.29,-3.35,-3.35,0,*53
1510898687.71,41853,8.5,73724.5,-2.27,-3.31,-3.31,0,*5C
1510898688.92,41854,8.5,73724.5,-2.27,-3.39,-3.39,0,*5B
1510898690.12,41855,8.5,73724.8,-2.27,-3.39,-3.39,0,*5A
1510898691.32,41856,8.56,73730.8,-2.27,-3.39,-3.39,0,*59
1510898692.54,41857,8.56,73730.3,-2.29,-3.35,-3.35,0,*56
1510898693.74,41858,8.56,73730.5,-2.27,-3.31,-3.39,0,*5F
1510898694.97,41859,8.5,73728.0,-2.29,-3.35,-3.35,0,*58
1510898696.22,41860,8.5,73726.3,-2.29,-3.35,-3.43,0,*53
1510898697.44,41861,8.5,73728.0,-2.29,-3.35,-3.35,0,*53
1510898698.64,41862,8.5,73730.3,-2.27,-3.39,-3.31,0,*56
1510898699.87,41863,8.5,73728.3,-2.29,-3.35,-3.35,0,*51
1510898701.08,41864,8.5,73730.8,-2.29,-3.23,-3.35,0,*51
1510898702.32,41865,8.5,73730.3,-2.29,-3.23,-3.43,0,*51
1510898703.53,41866,8.5,73728.5,-2.27,-3.27,-3.27,0,*5A
1510898704.75,41867,8.5,73728.5,-2.29,-3.31,-3.31,0,*55
1510898705.98,41868,8.56,73730.3,-2.29,-3.31,-3.35,0,*5E
1510898707.18,41869,8.5,73724.0,-2.27,-3.39,-3.39,0,*55
1510898708.45,41870,8.56,73726.5,-2.29,-3.43,-3.43,0,*53
1510898709.65,41871,8.5,73720.8,-2.27,-3.39,-3.39,0,*5C
1510898710.92,41872,8.5,73728.5,-2.29,-3.47,-3.47,0,*51
1510898712.12,41873,8.5,73726.3,-2.27,-3.39,-3.39,0,*5E
1510898713.38,41874,8.5,73726.3,-2.29,-3.43,-3.43,0,*57
1510898714.63,41875,8.5,73728.8,-2.29,-3.43,-3.31,0,*53
1510898715.9,41876,8.56,73734.8,-2.29,-3.43,-3.43,0,*55
1510898717.12,41877,8.5,73730.8,-2.29,-3.35,-3.31,0,*50
1510898718.34,41878,8.5,73734.0,-2.29,-3.35,-3.31,0,*5F
1510898719.54,41879,8.5,73730.3,-2.27,-3.39,-3.31,0,*5C
1510898720.77,41880,8.5,73726.3,-2.29,-3.35,-3.35,0,*5C
1510898722.01,41881,8.5,73726.5,-2.29,-3.43,-3.35,0,*5C
1510898723.24,41882,8.56,73730.8,-2.29,-3.35,-3.35,0,*5E
1510898724.44,41883,8.5,73724.3,-2.27,-3.31,-3.31,0,*51
1510898725.64,41884,8.5,73730.0,-2.27,-3.27,-3.39,0,*59
1510898726.89,41885,8.5,73726.5,-2.29,-3.35,-3.43,0,*58
1510898728.11,41886,8.5,73724.8,-2.27,-3.43,-3.31,0,*51
1510898729.31,41887,8.5,73726.0,-2.27,-3.31,-3.31,0,*55
1510898730.51,41888,8.5,73726.0,-2.27,-3.27,-3.31,0,*5D
1510898731.7,41889,8.5,73728.0,-2.27,-3.19,-3.39,0,*59
1510898732.9,41890,8.5,73730.0,-2.27,-3.27,-3.31,0,*54
1510898734.15,41891,8.5,73722.8,-2.29,-3.35,-3.43,0,*5D
1510898735.42,41892,8.5,73726.3,-2.29,-3.43,-3.43,0,*5F
1510898736.67,41893,8.5,73726.8,-2.29,-3.43,-3.35,0,*5F
1510898737.89,41894,8.5,73724.5,-2.27,-3.35,-3.55,0,*51
1510898739.11,41895,8.5,73728.5,-2.27,-3.39,-3.43,0,*5B
1510898740.31,41896,8.5,73730.0,-2.27,-3.39,-3.39,0,*55
1510898741.51,41897,8.56,73730.3,-2.27,-3.31,-3.39,0,*5C
1510898742.73,41898,8.5,73726.3,-2.27,-3.39,-3.51,0,*55
1510898744.0,41899,8.5,73726.8,-2.29,-3.51,-3.43,0,*57
1510898745.25,41900,8.5,73724.5,-2.27,-3.43,-3.43,0,*5B
1510898746.52,41901,8.56,73730.5,-2.29,-3.47,-3.43,0,*50
1510898747.78,41902,8.5,73722.5,-2.29,-3.55,-3.47,0,*54
1510898749.05,41903,8.5,73722.0,-2.29,-3.55,-3.55,0,*56
1510898750.31,41904,8.5,73724.5,-2.29,-3.47,-3.47,0,*51
1510898751.58,41905,8.5,73728.0,-2.29,-3.47,-3.55,0,*53
1510898752.83,41906,8.5,73726.5,-2.27,-3.43,-3.51,0,*5E
1510898754.09,41907,8.5,73724.3,-2.29,-3.47,-3.55,0,*51
1510898755.34,41908,8.5,73724.8,-2.27,-3.51,-3.51,0,*53
1510898756.61,41909,8.5,73724.3,-2.29,-3.47,-3.55,0,*5F
1510898757.87,41910,8.5,73724.5,-2.29,-3.55,-3.55,0,*54
1510898759.13,41911,8.5,73720.8,-2.29,-3.55,-3.55,0,*55
1510898760.4,41912,8.5,73720.0,-2.29,-3.47,-3.55,0,*55
1510898761.64,41913,8.5,73722.8,-2.27,-3.43,-3.51,0,*5A
1510898762.91,41914,8.5,73720.8,-2.29,-3.55,-3.55,0,*50
1510898764.16,41915,8.5,73726.0,-2.27,-3.47,-3.51,0,*58
1510898765.42,41916,8.5,73726.0,-2.29,-3.55,-3.47,0,*51
1510898766.67,41917,8.5,73720.5,-2.27,-3.51,-3.43,0,*5E
1510898767.91,41918,8.5,73724.8,-2.27,-3.43,-3.51,0,*51
1510898769.18,41919,8.5,73724.0,-2.29,-3.47,-3.47,0,*5D
1510898770.45,41920,8.5,73726.5,-2.29,-3.47,-3.47,0,*57
1510898771.71,41921,8.5,73724.8,-2.29,-3.47,-3.55,0,*55
1510898772.96,41922,8.5,73720.0,-2.27,-3.43,-3.51,0,*58
1510898774.22,41923,8.5,73722.8,-2.29,-3.47,-3.47,0,*54
1510898775.49,41924,8.5,73724.3,-2.29,-3.47,-3.55,0,*50
1510898776.76,41925,8.5,73726.8,-2.29,-3.43,-3.55,0,*55
1510898778.02,41926,8.5,73726.8,-2.29,-3.43,-3.43,0,*51
1510898779.3,41927,8.5,73724.5,-2.29,-3.47,-3.43,0,*54
1510898780.56,41928,8.5,73726.3,-2.29,-3.43,-3.47,0,*5B
1510898781.78,41929,8.5,73728.0,-2.27,-3.39,-3.47,0,*59
1510898783.05,41930,8.5,73730.0,-2.29,-3.47,-3.43,0,*52
1510898784.27,41931,8.5,73726.0,-2.27,-3.43,-3.39,0,*54
1510898785.5,41932,8.5,73726.8,-2.27,-3.43,-3.39,0,*57
1510898786.74,41933,8.5,73726.5,-2.29,-3.35,-3.43,0,*54
1510898787.99,41934,8.5,73724.0,-2.29,-3.35,-3.43,0,*53
1510898789.24,41935,8.5,73726.5,-2.29,-3.35,-3.43,0,*52
1510898790.43,41936,8.5,73730.3,-2.27,-3.39,-3.31,0,*56
1510898791.7,41937,8.5,73730.3,-2.29,-3.43,-3.43,0,*51
1510898792.9,41938,8.5,73728.5,-2.27,-3.39,-3.39,0,*50
1510898794.15,41939,8.5,73728.0,-2.29,-3.35,-3.43,0,*5E
1510898795.38,41940,8.5,73728.0,-2.29,-3.35,-3.35,0,*51
1510898796.62,41941,8.5,73728.0,-2.29,-3.23,-3.43,0,*56
1510898797.82,41942,8.56,73730.8,-2.27,-3.27,-3.31,0,*5A
1510898799.06,41943,8.5,73728.5,-2.29,-3.31,-3.43,0,*57
1510898800.26,41944,8.5,73726.8,-2.27,-3.35,-3.35,0,*5B
1510898801.46,41945,8.5,73730.5,-2.27,-3.31,-3.31,0,*5A
1510898802.69,41946,8.5,73730.8,-2.29,-3.31,-3.35,0,*53
1510898803.94,41947,8.56,73730.0,-2.29,-3.43,-3.35,0,*57
1510898805.14,41948,8.5,73726.3,-2.27,-3.31,-3.39,0,*5F
1510898806.38,41949,8.5,73728.3,-2.27,-3.43,-3.43,0,*56
1510898807.59,41950,8.5,73728.5,-2.27,-3.31,-3.27,0,*59
1510898808.85,41951,8.56,73732.3,-2.29,-3.43,-3.43,0,*51
1510898810.06,41952,8.5,73726.0,-2.27,-3.35,-3.35,0,*5C
1510898811.26,41953,8.5,73730.3,-2.27,-3.31,-3.39,0,*55
1510898812.46,41954,8.5,73728.0,-2.27,-3.27,-3.39,0,*55
1510898813.71,41955,8.5,73730.3,-2.29,-3.35,-3.43,0,*54
1510898814.91,41956,8.5,73730.3,-2.27,-3.31,-3.31,0,*58
1510898816.1,41957,8.5,73734.5,-2.27,-3.27,-3.31,0,*5E
1510898817.31,41958,8.5,73732.0,-2.27,-3.31,-3.39,0,*5E
1510898818.51,41959,8.5,73724.0,-2.27,-3.31,-3.39,0,*5F
1510898819.75,41960,8.5,73722.5,-2.27,-3.43,-3.43,0,*5D
1510898820.97,41961,8.5,73720.0,-2.23,-3.39,-3.43,0,*55
1510898822.24,41962,8.5,73724.8,-2.29,-3.43,-3.47,0,*55
1510898823.44,41963,8.5,73724.3,-2.27,-3.39,-3.39,0,*5E
1510898824.64,41964,8.5,73724.8,-2.27,-3.31,-3.39,0,*51
1510898825.89,41965,8.5,73724.0,-2.29,-3.43,-3.35,0,*57
1510898827.14,41966,8.5,73724.8,-2.29,-3.35,-3.43,0,*54
1510898828.33,41967,8.5,73726.0,-2.27,-3.39,-3.31,0,*52
1510898829.54,41968,8.5,73726.3,-2.27,-3.31,-3.39,0,*5D
1510898830.73,41969,8.5,73726.0,-2.27,-3.31,-3.31,0,*54
1510898831.93,41970,8.5,73724.5,-2.27,-3.31,-3.31,0,*5C
1510898833.16,41971,8.5,73728.3,-2.29,-3.31,-3.35,0,*57
1510898834.36,41972,8.56,73728.3,-2.27,-3.39,-3.31,0,*56
1510898835.58,41973,8.5,73724.3,-2.27,-3.39,-3.43,0,*52
1510898836.83,41974,8.5,73724.0,-2.27,-3.51,-3.43,0,*5B
1510898838.07,41975,8.5,73720.8,-2.27,-3.51,-3.43,0,*5A
1510898839.34,41976,8.5,73724.5,-2.29,-3.55,-3.55,0,*54
1510898840.58,41977,8.5,73724.3,-2.27,-3.51,-3.63,0,*5A
1510898841.83,41978,8.5,73726.8,-2.27,-3.63,-3.63,0,*54
1510898843.1,41979,8.56,73728.5,-2.29,-3.59,-3.67,0,*56
1510898844.37,41980,8.5,73722.8,-2.29,-3.59,-3.59,0,*5D
1510898845.61,41981,8.5,73724.8,-2.27,-3.43,-3.55,0,*55
1510898846.85,41982,8.5,73722.8,-2.27,-3.55,-3.63,0,*54
1510898848.09,41983,8.5,73726.0,-2.27,-3.55,-3.55,0,*50
1510898849.36,41984,8.5,73724.0,-2.29,-3.59,-3.67,0,*54
1510898850.6,41985,8.5,73722.3,-2.27,-3.55,-3.63,0,*53
1510898851.84,41986,8.5,73724.5,-2.27,-3.55,-3.63,0,*50
1510898853.11,41987,8.5,73722.5,-2.29,-3.47,-3.55,0,*59
1510898854.37,41988,8.5,73720.8,-2.29,-3.55,-3.55,0,*55
1510898855.62,41989,8.56,73726.0,-2.27,-3.51,-3.55,0,*5E
1510898856.86,41990,8.5,73722.8,-2.27,-3.51,-3.55,0,*56
1510898858.13,41991,8.5,73724.3,-2.29,-3.55,-3.51,0,*59
1510898859.4,41992,8.5,73726.0,-2.29,-3.55,-3.59,0,*52
1510898860.64,41993,8.5,73720.5,-2.27,-3.47,-3.55,0,*52
1510898861.91,41994,8.5,73724.0,-2.29,-3.55,-3.55,0,*58
1510898863.17,41995,8.5,73726.3,-2.29,-3.59,-3.67,0,*54
1510898864.45,41996,8.5,73724.5,-2.29,-3.67,-3.59,0,*57
1510898865.72,41997,8.5,73724.3,-2.29,-3.59,-3.59,0,*5B
1510898866.99,41998,8.5,73724.8,-2.29,-3.47,-3.55,0,*57
1510898868.26,41999,8.5,73722.0,-2.29,-3.47,-3.47,0,*55
1510898869.52,42000,8.5,73726.0,-2.29,-3.55,-3.55,0,*5F
1510898870.77,42001,8.5,73722.3,-2.31,-3.47,-3.55,0,*54
1510898872.02,42002,8.5,73722.3,-2.31,-3.55,-3.59,0,*58
1510898873.26,42003,8.5,73726.0,-2.31,-3.55,-3.67,0,*54
1510898874.52,42004,8.5,73722.5,-2.31,-3.59,-3.59,0,*52
1510898875.77,42005,8.56,73726.5,-2.31,-3.55,-3.59,0,*5F
1510898877.01,42006,8.5,73724.8,-2.31,-3.59,-3.55,0,*5C
1510898878.26,42007,8.5,73722.5,-2.31,-3.55,-3.55,0,*51
1510898879.51,42008,8.5,73726.5,-2.31,-3.55,-3.59,0,*52
1510898880.75,42009,8.5,73724.5,-2.31,-3.59,-3.67,0,*52
1510898882.0,42010,8.5,73726.8,-2.31,-3.55,-3.55,0,*57
1510898883.24,42011,8.5,73724.3,-2.31,-3.55,-3.55,0,*56
1510898884.49,42012,8.5,73724.5,-2.31,-3.47,-3.55,0,*56
1510898885.73,42013,8.5,73726.3,-2.31,-3.55,-3.55,0,*54
1510898886.98,42014,8.5,73728.5,-2.31,-3.55,-3.47,0,*50
1510898888.23,42015,8.5,73724.8,-2.31,-3.59,-3.59,0,*52
1510898889.48,42016,8.5,73720.0,-2.31,-3.59,-3.55,0,*5D
1510898890.74,42017,8.5,73726.5,-2.33,-3.55,-3.55,0,*52
1510898891.99,42018,8.5,73722.8,-2.31,-3.59,-3.67,0,*52
1510898893.24,42019,8.5,73720.3,-2.31,-3.55,-3.59,0,*52
1510898894.49,42020,8.5,73724.3,-2.31,-3.67,-3.55,0,*55
1510898895.73,42021,8.5,73722.5,-2.31,-3.59,-3.55,0,*59
1510898896.98,42022,8.5,73724.3,-2.31,-3.55,-3.55,0,*56
1510898898.23,42023,8.5,73724.5,-2.31,-3.55,-3.59,0,*5B
1510898899.5,42024,8.5,73720.0,-2.33,-3.63,-3.63,0,*52
1510898900.75,42025,8.5,73720.8,-2.31,-3.67,-3.59,0,*5C
1510898902.0,42026,8.5,73724.8,-2.31,-3.59,-3.67,0,*5F
1510898903.25,42027,8.56,73724.5,-2.31,-3.47,-3.59,0,*5C
1510898904.5,42028,8.5,73718.8,-2.31,-3.55,-3.55,0,*5C
1510898905.75,42029,8.5,73724.5,-2.31,-3.55,-3.59,0,*51
1510898907.02,42030,8.5,73726.5,-2.33,-3.59,-3.59,0,*57
1510898908.27,42031,8.5,73728.5,-2.31,-3.55,-3.47,0,*57
1510898909.51,42032,8.5,73726.8,-2.31,-3.47,-3.47,0,*57
1510898910.76,42033,8.5,73726.3,-2.31,-3.43,-3.47,0,*52
1510898911.98,42034,8.5,73724.0,-2.31,-3.35,-3.55,0,*57
1510898913.22,42035,8.5,73724.8,-2.31,-3.43,-3.55,0,*57
1510898914.47,42036,8.5,73720.3,-2.31,-3.47,-3.47,0,*53
1510898915.74,42037,8.5,73722.8,-2.33,-3.59,-3.63,0,*59
1510898916.99,42038,8.5,73726.3,-2.31,-3.55,-3.55,0,*5D
1510898918.23,42039,8.5,73726.8,-2.31,-3.47,-3.55,0,*5F
1510898919.51,42040,8.5,73722.3,-2.33,-3.59,-3.51,0,*58
1510898920.75,42041,8.5,73726.3,-2.31,-3.47,-3.55,0,*50